GW2336 Weather Reports


Display with metric or nautical units.
time (UTC)temp
F
wind
direction
speed
MPH
gust
MPH
rain 1hr
in
rain 24hr
in
rain mn
in
humidity
%
barometer
mb
20260506150039 66 49 1.0 3.0 0.00 0.00 0.00 40 1017.6
20260506140049 64 55 2.0 5.0 0.00 0.00 0.00 41 1017.5
20260506130054 62 61 2.0 4.0 0.00 0.00 0.00 44 1016.9
20260506120110 63 87 2.0 4.0 0.00 0.00 0.00 39 1016.0
20260506110054 66 171 0.0 3.0 0.00 0.00 0.00 37 1015.6
20260506100040 69 61 2.0 5.0 0.00 0.00 0.00 30 1015.0
20260506090106 68 89 5.0 9.0 0.00 0.00 0.00 31 1015.0
20260506080113 65 96 2.0 4.0 0.00 0.00 0.00 38 1015.4
20260506040031 77 102 8.0 15.0 0.00 0.00 0.00 23 1014.4
20260506030038 78 124 9.0 16.0 0.00 0.00 0.00 21 1013.5
20260506020106 80 96 8.0 22.0 0.00 0.00 0.00 21 1012.7
20260506010037 82 80 11.0 20.0 0.00 0.00 0.00 18 1011.6
20260506000054 85 119 14.0 25.0 0.00 0.00 0.00 13 1011.0
20260505230046 88 109 14.0 29.0 0.00 0.00 0.00 9 1010.4
20260505220034 91 84 9.0 20.0 0.00 0.00 0.00 8 1010.8
20260505210049 90 111 11.0 19.0 0.00 0.00 0.00 8 1011.7
20260505200048 89 75 12.0 17.0 0.00 0.00 0.00 9 1013.0
20260505190103 86 106 18.0 27.0 0.00 0.00 0.00 9 1013.8
20260505180101 85 107 3.0 11.0 0.00 0.00 0.00 16 1014.7
20260505170049 79 180 3.0 7.0 0.00 0.00 0.00 22 1015.2